Location: Kuffner-Sternwarte
(48.2130°N, 16.2960°E)
Time: 16:25:00
(UTC+02:00)

COROT - Pass Details

Date: 16 May 2026
Orbit: 594 x 855 km, 90.1° (Epoch: 21 May)

Event Time Altitude Azimuth Distance (km) Brightness Sun altitude
Rises 22:26:57 0° 11° (NNE) 3,315 10.0 -15.2°
Reaches altitude 10° 22:29:53 10° 26° (NNE) 2,336 8.9 -15.5°
Maximum altitude 22:33:57 23° 78° (ENE) 1,557 7.4 -15.9°
Enters shadow 22:35:44 19° 108° (ESE) 1,699 7.4 -16.0°
